Tiempo cada hora Gogolice

Hoy, 18 Junio, Viernes

Tiempo Temperatura Precipitaciones Viento Presión Humedad
00:00 +21°C° 0 mm 4 mps 754 mmHg 74%
01:00 +20°C° 0 mm 3 mps 754 mmHg 79%
02:00 +20°C° 0 mm 3 mps 754 mmHg 81%
03:00 +19°C° 0 mm 3 mps 754 mmHg 83%
04:00 +19°C° 0 mm 3 mps 754 mmHg 85%
05:00 +20°C° 0 mm 3 mps 754 mmHg 79%
06:00 +22°C° 0 mm 3 mps 754 mmHg 72%
07:00 +25°C° 0 mm 3 mps 754 mmHg 66%
08:00 +27°C° 0 mm 4 mps 754 mmHg 59%
09:00 +28°C° 0 mm 4 mps 754 mmHg 52%
10:00 +30°C° 0 mm 4 mps 754 mmHg 45%
11:00 +32°C° 0 mm 4 mps 754 mmHg 42%
12:00 +33°C° 0 mm 4 mps 754 mmHg 38%
13:00 +34°C° 0 mm 4 mps 754 mmHg 35%
14:00 +34°C° 0 mm 4 mps 753 mmHg 35%
15:00 +34°C° 0 mm 4 mps 753 mmHg 36%
16:00 +34°C° 0 mm 4 mps 753 mmHg 36%
17:00 +33°C° 0 mm 4 mps 753 mmHg 42%
18:00 +30°C° 0 mm 4 mps 753 mmHg 48%
19:00 +29°C° 0 mm 4 mps 753 mmHg 54%
20:00 +27°C° 0 mm 4 mps 753 mmHg 57%
21:00 +26°C° 0 mm 4 mps 753 mmHg 60%
22:00 +25°C° 0 mm 3 mps 754 mmHg 63%
23:00 +24°C° 0 mm 3 mps 753 mmHg 68%

Mañana, 19 Junio, Sábado

Tiempo Temperatura Precipitaciones Viento Presión Humedad
00:00 +22°C° 0 mm 3 mps 753 mmHg 72%
01:00 +21°C° 0 mm 3 mps 753 mmHg 76%
02:00 +21°C° 0 mm 3 mps 753 mmHg 78%
03:00 +20°C° 0 mm 3 mps 753 mmHg 80%
04:00 +20°C° 0 mm 2 mps 753 mmHg 82%
05:00 +22°C° 0 mm 3 mps 753 mmHg 77%
06:00 +24°C° 0 mm 3 mps 753 mmHg 71%
07:00 +26°C° 0 mm 3 mps 753 mmHg 66%
08:00 +28°C° 0 mm 3 mps 753 mmHg 59%
09:00 +29°C° 0 mm 3 mps 753 mmHg 53%
10:00 +31°C° 0 mm 3 mps 753 mmHg 47%
11:00 +33°C° 0 mm 3 mps 753 mmHg 43%
12:00 +34°C° 0 mm 3 mps 752 mmHg 40%
13:00 +35°C° 0 mm 2 mps 752 mmHg 37%
14:00 +35°C° 0 mm 2 mps 752 mmHg 37%
15:00 +35°C° 0 mm 2 mps 752 mmHg 36%
16:00 +34°C° 0 mm 1 mps 752 mmHg 36%
17:00 +32°C° 0.1 mm 2 mps 752 mmHg 45%
18:00 +30°C° 0.1 mm 3 mps 752 mmHg 53%
19:00 +29°C° 0.1 mm 3 mps 752 mmHg 62%
20:00 +26°C° 2.2 mm 3 mps 752 mmHg 73%
21:00 +24°C° 2.2 mm 3 mps 753 mmHg 84%
22:00 +21°C° 2.2 mm 2 mps 753 mmHg 95%
23:00 +20°C° 0.1 mm 2 mps 753 mmHg 95%

Pasado mañana, 20 Junio, Domingo

Tiempo Temperatura Precipitaciones Viento Presión Humedad
00:00 +20°C° 0.1 mm 2 mps 753 mmHg 95%
01:00 +21°C° 0.1 mm 1 mps 753 mmHg 95%
02:00 +20°C° 0.2 mm 2 mps 753 mmHg 95%
03:00 +19°C° 0.2 mm 2 mps 752 mmHg 96%
04:00 +19°C° 0.2 mm 3 mps 752 mmHg 96%
05:00 +20°C° 0 mm 2 mps 752 mmHg 92%
06:00 +21°C° 0 mm 2 mps 752 mmHg 88%
07:00 +23°C° 0 mm 2 mps 752 mmHg 84%
08:00 +25°C° 0 mm 2 mps 751 mmHg 76%
09:00 +27°C° 0 mm 3 mps 751 mmHg 68%
10:00 +29°C° 0 mm 3 mps 751 mmHg 61%
11:00 +30°C° 0 mm 3 mps 750 mmHg 55%
12:00 +32°C° 0 mm 4 mps 750 mmHg 50%
13:00 +34°C° 0 mm 4 mps 749 mmHg 45%
14:00 +34°C° 0 mm 4 mps 749 mmHg 44%
15:00 +34°C° 0 mm 5 mps 749 mmHg 44%
16:00 +34°C° 0 mm 5 mps 748 mmHg 43%
17:00 +32°C° 0 mm 5 mps 748 mmHg 48%
18:00 +30°C° 0 mm 5 mps 748 mmHg 53%
19:00 +28°C° 0 mm 5 mps 748 mmHg 58%
20:00 +27°C° 0 mm 4 mps 748 mmHg 62%
21:00 +25°C° 0 mm 4 mps 748 mmHg 66%
22:00 +23°C° 0 mm 4 mps 748 mmHg 71%
23:00 +22°C° 0 mm 3 mps 748 mmHg 75%

21 Junio, Lunes

Tiempo Temperatura Precipitaciones Viento Presión Humedad
00:00 +21°C° 0 mm 2 mps 748 mmHg 80%
01:00 +21°C° 0 mm 1 mps 747 mmHg 85%
02:00 +20°C° 0 mm 2 mps 747 mmHg 85%
03:00 +20°C° 0 mm 2 mps 747 mmHg 86%
04:00 +19°C° 0 mm 3 mps 747 mmHg 87%
05:00 +20°C° 0 mm 3 mps 747 mmHg 83%
06:00 +21°C° 0 mm 3 mps 748 mmHg 79%
07:00 +22°C° 0 mm 3 mps 748 mmHg 75%
08:00 +24°C° 0 mm 3 mps 748 mmHg 71%
09:00 +25°C° 0 mm 3 mps 748 mmHg 67%
10:00 +26°C° 0 mm 2 mps 748 mmHg 63%
11:00 +27°C° 0 mm 3 mps 748 mmHg 59%
12:00 +28°C° 0 mm 3 mps 748 mmHg 55%
13:00 +29°C° 0 mm 3 mps 748 mmHg 50%
14:00 +29°C° 0 mm 3 mps 748 mmHg 51%
15:00 +28°C° 0 mm 3 mps 748 mmHg 51%
16:00 +28°C° 0 mm 3 mps 748 mmHg 52%
17:00 +27°C° 0 mm 3 mps 748 mmHg 57%
18:00 +27°C° 0 mm 2 mps 748 mmHg 62%
19:00 +26°C° 0 mm 2 mps 748 mmHg 67%
20:00 +24°C° 0 mm 2 mps 748 mmHg 72%
21:00 +23°C° 0 mm 2 mps 748 mmHg 77%
22:00 +20°C° 0 mm 2 mps 748 mmHg 82%
23:00 +19°C° 0 mm 2 mps 749 mmHg 86%

22 Junio, Martes

Tiempo Temperatura Precipitaciones Viento Presión Humedad
00:00 +19°C° 0 mm 2 mps 749 mmHg 90%
01:00 +18°C° 0 mm 2 mps 749 mmHg 94%
02:00 +18°C° 0 mm 2 mps 749 mmHg 95%
03:00 +17°C° 0 mm 2 mps 749 mmHg 95%
04:00 +17°C° 0 mm 2 mps 750 mmHg 96%
05:00 +18°C° 0 mm 2 mps 750 mmHg 91%
06:00 +20°C° 0 mm 1 mps 750 mmHg 86%
07:00 +21°C° 0 mm 1 mps 751 mmHg 81%
08:00 +22°C° 0 mm 1 mps 751 mmHg 77%
09:00 +23°C° 0 mm 1 mps 751 mmHg 73%
10:00 +24°C° 0 mm 1 mps 751 mmHg 68%
11:00 +25°C° 0.1 mm 1 mps 751 mmHg 64%
12:00 +27°C° 0.1 mm 1 mps 751 mmHg 59%
13:00 +28°C° 0.1 mm 1 mps 751 mmHg 55%
14:00 +27°C° 0.3 mm 1 mps 751 mmHg 56%
15:00 +27°C° 0.3 mm 1 mps 751 mmHg 57%
16:00 +27°C° 0.3 mm 2 mps 751 mmHg 58%
17:00 +26°C° 0.4 mm 2 mps 751 mmHg 65%
18:00 +24°C° 0.4 mm 3 mps 751 mmHg 72%
19:00 +22°C° 0.4 mm 4 mps 751 mmHg 79%
20:00 +20°C° 0.3 mm 4 mps 751 mmHg 83%
21:00 +18°C° 0.3 mm 4 mps 752 mmHg 87%
22:00 +15°C° 0.3 mm 5 mps 752 mmHg 91%
23:00 +15°C° 0.8 mm 4 mps 752 mmHg 92%

23 Junio, Miércoles

Tiempo Temperatura Precipitaciones Viento Presión Humedad
00:00 +14°C° 0.8 mm 4 mps 752 mmHg 92%
01:00 +14°C° 0.8 mm 4 mps 752 mmHg 93%
02:00 +14°C° 0.8 mm 4 mps 752 mmHg 94%
03:00 +14°C° 0.8 mm 5 mps 751 mmHg 94%
04:00 +14°C° 0.8 mm 5 mps 751 mmHg 94%
05:00 +14°C° 0.5 mm 5 mps 751 mmHg 94%
06:00 +14°C° 0.5 mm 5 mps 751 mmHg 93%
07:00 +14°C° 0.5 mm 5 mps 750 mmHg 92%
08:00 +14°C° 2 mm 6 mps 750 mmHg 93%
09:00 +14°C° 2 mm 6 mps 750 mmHg 94%
10:00 +14°C° 2 mm 7 mps 750 mmHg 94%
11:00 +12°C° 2.7 mm 8 mps 750 mmHg 95%
12:00 +10°C° 2.7 mm 8 mps 751 mmHg 95%
13:00 +8°C° 2.7 mm 9 mps 751 mmHg 95%
14:00 +9°C° 2.8 mm 8 mps 752 mmHg 94%
15:00 +9°C° 2.8 mm 7 mps 753 mmHg 93%
16:00 +9°C° 2.8 mm 6 mps 753 mmHg 93%
17:00 +9°C° 0.1 mm 6 mps 754 mmHg 91%
18:00 +10°C° 0.1 mm 5 mps 754 mmHg 89%
19:00 +10°C° 0.1 mm 5 mps 754 mmHg 87%
20:00 +10°C° 0 mm 4 mps 755 mmHg 89%
21:00 +10°C° 0 mm 4 mps 755 mmHg 92%
22:00 +9°C° 0 mm 3 mps 755 mmHg 94%
23:00 +8°C° 0 mm 4 mps 755 mmHg 92%
Mostrar más

Necesitamos Su Consentimiento

Meteoprog y nuestros Proveedores de Servicios pueden almacenar y acceder a sus datos personales como cookies, identificadores de dispositivo u otras tecnologías similares de su dispositivo y procesar dichos datos para personalizar contenido y anuncios, además de ofrecer funciones de redes sociales y analizar el tráfico.

  • Almacenar y/o acceder a información en su dispositivo

    Se puede almacenar o acceder a cookies, identificadores de dispositivo u otra información de su dispositivo para los fines anteriormente indicados.

  • Anuncios y contenido personalizados, medición de anuncios y contenido, percepciones del público, y desarrollo de productos

    Los anuncios y el contenido pueden personalizarse en base a su perfil. Se pueden añadir más datos para personalizar mejor los anuncios y contenidos. Se puede medir el rendimiento de los anuncios y contenidos. Se puede obtener la percepción sobre el público que ha visto los anuncios y contenidos. Dichos datos pueden usarse para desarrollar o mejorar la experiencia del usuario, sistemas y software.

Al hacer clic en ‘Estoy De Acuerdo’ usted permitirá el uso de las cookies, identificadores de dispositivo, balizas web u otras tecnologías similares indicadas. Su configuración puede cambiarse desde el navegador de su dispositivo.

Para ciertos fines, los intereses legítimos pueden ser considerados por encima del consentimiento. Puede leer más sobre ello en nuestra Política de Privacidad y Cookies.